Location: Horowhenua
(40.7500°S, 175.3333°E)
Time: 05:24:42
(UTC+00:00)

KORONAS-FOTON - Pass Details

Date: 28 January 2023
Orbit: 495 x 519 km, 82.4° (Epoch: 01 April)

Event Time Altitude Azimuth Distance (km) Brightness Sun altitude
Exits shadow 15:26:40 31° 13° (NNE) 894 4.7 -18.5°
Maximum altitude 15:28:16 65° 84° (E) 558 4.0 -18.2°
Drops below altitude 10° 15:32:02 10° 166° (SSE) 1,733 7.3 -17.7°
Sets 15:34:11 0° 169° (SSE) 2,629 8.3 -17.5°
